User: anonymous   Login
Location: Unspecified
(0.0000°N, 0.0000°E)
Time: 18:02:39
(UTC+00:00)
Language:

STARLINK-2227 - Orbit

View from above orbital plane
View from above orbital plane
View from above satellite
View from above satellite

Ground track
Ground track

The orbit is defined by the following mean orbital elements,

1 48575U          26145.24464060 +.00000000 +00000-0 -10221-4 0 00007
2 48575  53.1605  92.1570 0001559  94.4952 265.6227 15.31697971    07
Epoch (UTC): 25 May 2026 05:52:16
Eccentricity: 0.0001559
inclination: 53.1605°
perigee height: 470 km
apogee height: 472 km
right ascension of ascending node: 92.1570°
argument of perigee: 94.4952°
revolutions per day: 15.31697971
mean anomaly at epoch: 265.6227°

The dashed part of the orbit path shows where the satellite is in the earth's shadow,  

DLR